Home   Weather   Cranbrook   Past weeks
Flag for Canada

Past Weather in Cranbrook, British Columbia, Canada — Yesterday and Last 2 Weeks

Now
41 °F

Passing clouds.


Feels Like: 41 °F
Forecast: 53 / 31 °F
Wind: 2 mph from North

Location: Cranbrook

Current Time: Mar 19, 2019 at 1:30:07 pm

Latest Report: Mar 19, 2019 at 12:00 pm


Visibility: 25 mi

Pressure: 30.42 "Hg (27.12 "Hg at 933m altitude)

Humidity: 53%

Dew Point: 25 °F

Location of CranbrookLocation

Past Weather in Cranbrook — Graph

°F

Cranbrook Temperature Yesterday

Maximum temperature yesterday: 55 °F (at 6:00 pm)
Minimum temperature yesterday: 28 °F (at 8:00 am)
Average temperature yesterday: 41 °F

High & Low Weather Summary for the Past Weeks

 TemperatureHumidityPressure
High55 °F (Mar 18, 6:00 pm)100% (Mar 12, 9:11 am)30.64 "Hg (Mar 12, 9:11 am)
Low-8 °F (Mar 5, 7:00 am)28% (Mar 8, 4:00 pm)29.64 "Hg (Mar 12, 3:29 pm)
Average29 °F64%30.18 "Hg
* Reported Mar 4 11:00 am — Mar 19 12:00 pm, Cranbrook. Weather by CustomWeather, © 2019

Note: Actual official high and low records may vary slightly from our data, if they occured in-between our weather recording intervals... More about our weather records

Advertising

Cranbrook Weather History for the Previous 24 Hours

Scroll right to see more
 ConditionsComfort  
Time TempWeatherWind HumidityBarometerVisibility
12:00 pm
Tue, Mar 19
41 °FPassing clouds.2 mph53%30.42 "Hg25 mi
11:00 am37 °FPassing clouds.2 mph60%30.44 "Hg25 mi
10:00 am34 °FPassing clouds.2 mph70%30.45 "Hg25 mi
9:00 am28 °FPassing clouds.2 mph80%30.45 "Hg25 mi
8:00 am25 °FPassing clouds.No wind86%30.45 "Hg25 mi
7:00 am27 °FPassing clouds.3 mph80%30.42 "Hg25 mi
6:00 am27 °FClear.3 mph86%30.41 "Hg25 mi
5:00 am27 °FClear.6 mph86%30.40 "Hg25 mi
4:00 am30 °FPassing clouds.No wind75%30.39 "Hg25 mi
3:00 am32 °FPassing clouds.5 mph75%30.39 "Hg25 mi
2:00 am32 °FPassing clouds.2 mph75%30.39 "Hg25 mi
1:00 am36 °FPassing clouds.5 mph65%30.39 "Hg25 mi
12:00 am37 °FPassing clouds.7 mph60%30.37 "Hg25 mi
11:00 pm
Mon, Mar 18
41 °FPassing clouds.8 mph53%30.36 "Hg25 mi
10:00 pm43 °FClear.9 mph49%30.36 "Hg25 mi
9:00 pm43 °FPassing clouds.3 mph46%30.35 "Hg25 mi
8:00 pm45 °FPassing clouds.2 mph46%30.34 "Hg25 mi
7:00 pm54 °FPassing clouds.3 mph30%30.31 "Hg25 mi
6:00 pm55 °FPassing clouds.5 mph31%30.32 "Hg25 mi
5:00 pm54 °FPassing clouds.No wind33%30.34 "Hg25 mi
4:00 pm54 °FPassing clouds.3 mph33%30.35 "Hg25 mi
3:00 pm50 °FPassing clouds.No wind35%30.38 "Hg25 mi
2:00 pm48 °FSunny.5 mph40%30.41 "Hg25 mi
1:00 pm45 °FPassing clouds.No wind39%30.44 "Hg25 mi
Weather by CustomWeather, © 2019

See weather overview